Flight Briefing for CPX664

Departure Arrival
Palm Beach International Airport (KPBI)
Click to view FAA NOTAMS
Miami International Airport (KMIA)
Click to view FAA NOTAMS
Departure Time Arrival Time
N/A N/A
Aircraft Distance
SF340AF 120nm
Departure METAR Arrival METAR
KPBI 271053Z 11008KT 10SM SCT021 SCT026 26/22 A3007 RMK AO2 SLP180 T02610217 KMIA 271053Z 07007KT 10SM FEW024 26/20 A3005 RMK AO2 SLP175 T02610200
Suggested Route
BUFIT2 HILEY HILEY7


View recent IFR Routes data
Notes



Charts and Procedures

Charts for KPBI
No chart available
Charts for KMIA
No chart available

Windy.com Weather Map